| time (UTC) | temp F | wind direction | speed knots | gust knots | rain 1hr in | rain 24hr in | rain mn in | humidity % | barometer mb |
| 20260504011009 | 71 | 71 | 2.6 | 11.3 | 0.00 | 0.12 | 0.12 | 72 | 1017.5 |
| 20260504010503 | 71 | 80 | 2.6 | 11.3 | 0.00 | 0.12 | 0.12 | 72 | 1017.4 |
| 20260504010015 | 71 | 78 | 5.2 | 11.3 | 0.00 | 0.12 | 0.12 | 72 | 1017.4 |
| 20260504005504 | 71 | 63 | 3.5 | 9.6 | 0.00 | 0.12 | 0.12 | 72 | 1017.3 |
| 20260504005008 | 71 | 98 | 3.5 | 9.6 | 0.00 | 0.12 | 0.12 | 72 | 1017.1 |
| 20260504004515 | 71 | 78 | 4.3 | 9.6 | 0.00 | 0.12 | 0.12 | 71 | 1017.1 |
| 20260504004009 | 71 | 107 | 1.7 | 9.6 | 0.00 | 0.12 | 0.12 | 71 | 1017.1 |
| 20260504003510 | 72 | 61 | 3.5 | 9.6 | 0.00 | 0.12 | 0.12 | 72 | 1016.8 |
| 20260504003013 | 72 | 90 | 3.5 | 9.6 | 0.00 | 0.12 | 0.12 | 72 | 1016.8 |
| 20260504002508 | 72 | 72 | 2.6 | 7.8 | 0.00 | 0.12 | 0.12 | 73 | 1016.8 |
| 20260504002010 | 72 | 71 | 3.5 | 7.8 | 0.00 | 0.12 | 0.12 | 75 | 1016.8 |
| 20260504001528 | 73 | 73 | 2.6 | 8.7 | 0.00 | 0.12 | 0.12 | 72 | 1016.8 |
| 20260504001004 | 73 | 59 | 4.3 | 8.7 | 0.00 | 0.12 | 0.12 | 72 | 1016.7 |
| 20260504000506 | 73 | 32 | 3.5 | 8.7 | 0.00 | 0.12 | 0.12 | 71 | 1016.8 |
| 20260504000051 | 73 | 94 | 1.7 | 7.0 | 0.00 | 0.12 | 0.12 | 71 | 1016.6 |
| 20260503235512 | 74 | 49 | 2.6 | 8.7 | 0.00 | 0.12 | 0.12 | 71 | 1016.6 |
| 20260503235004 | 74 | 35 | 4.3 | 9.6 | 0.00 | 0.12 | 0.12 | 69 | 1016.6 |
| 20260503234516 | 74 | 55 | 4.3 | 9.6 | 0.00 | 0.12 | 0.12 | 70 | 1016.4 |
| 20260503234007 | 75 | 82 | 3.5 | 9.6 | 0.00 | 0.12 | 0.12 | 69 | 1016.4 |
| 20260503233505 | 75 | 55 | 3.5 | 10.4 | 0.00 | 0.12 | 0.12 | 69 | 1016.5 |
| 20260503233020 | 75 | 111 | 4.3 | 12.2 | 0.00 | 0.12 | 0.12 | 67 | 1016.5 |
| 20260503232511 | 75 | 76 | 5.2 | 12.2 | 0.00 | 0.12 | 0.12 | 67 | 1016.4 |
| 20260503232008 | 75 | 63 | 5.2 | 11.3 | 0.00 | 0.13 | 0.12 | 67 | 1016.3 |
| 20260503231518 | 76 | 104 | 6.1 | 11.3 | 0.00 | 0.13 | 0.12 | 67 | 1016.4 |
| 20260503231010 | 76 | 42 | 5.2 | 9.6 | 0.00 | 0.13 | 0.12 | 65 | 1016.3 |
| 20260503230511 | 76 | 46 | 2.6 | 9.6 | 0.00 | 0.14 | 0.12 | 66 | 1016.4 |
| 20260503230018 | 76 | 96 | 3.5 | 9.6 | 0.00 | 0.14 | 0.12 | 65 | 1016.4 |
| 20260503225509 | 76 | 53 | 3.5 | 9.6 | 0.00 | 0.14 | 0.12 | 66 | 1016.4 |
| 20260503225009 | 76 | 79 | 2.6 | 8.7 | 0.00 | 0.14 | 0.12 | 66 | 1016.2 |
| 20260503224529 | 76 | 81 | 2.6 | 8.7 | 0.00 | 0.15 | 0.12 | 66 | 1016.3 |
| 20260503224009 | 76 | 49 | 3.5 | 8.7 | 0.00 | 0.15 | 0.12 | 65 | 1016.3 |
| 20260503223504 | 76 | 34 | 3.5 | 8.7 | 0.00 | 0.16 | 0.12 | 64 | 1016.5 |
| 20260503223022 | 76 | 45 | 2.6 | 7.8 | 0.00 | 0.16 | 0.12 | 64 | 1016.4 |
| 20260503222503 | 77 | 96 | 1.7 | 8.7 | 0.00 | 0.16 | 0.12 | 66 | 1016.4 |
| 20260503222006 | 77 | 125 | 2.6 | 8.7 | 0.00 | 0.16 | 0.12 | 65 | 1016.3 |
| 20260503221524 | 77 | 71 | 1.7 | 8.7 | 0.00 | 0.16 | 0.12 | 64 | 1016.2 |
| 20260503221014 | 77 | 89 | 5.2 | 8.7 | 0.00 | 0.16 | 0.12 | 64 | 1016.4 |
| 20260503220506 | 77 | 86 | 3.5 | 7.8 | 0.00 | 0.16 | 0.12 | 63 | 1016.2 |
| 20260503220025 | 77 | 54 | 1.7 | 7.8 | 0.00 | 0.16 | 0.12 | 64 | 1016.3 |
| 20260503215512 | 77 | 42 | 2.6 | 7.8 | 0.00 | 0.16 | 0.12 | 64 | 1016.3 |
| 20260503215008 | 77 | 70 | 3.5 | 9.6 | 0.00 | 0.16 | 0.12 | 63 | 1016.2 |
| 20260503214523 | 78 | 69 | 4.3 | 9.6 | 0.00 | 0.16 | 0.12 | 60 | 1016.2 |
| 20260503214010 | 78 | 67 | 3.5 | 9.6 | 0.00 | 0.16 | 0.12 | 64 | 1016.2 |
| 20260503213514 | 78 | 28 | 4.3 | 8.7 | 0.00 | 0.16 | 0.12 | 62 | 1016.1 |
| 20260503213021 | 78 | 57 | 2.6 | 10.4 | 0.00 | 0.16 | 0.12 | 61 | 1016.2 |
| 20260503212506 | 79 | 72 | 5.2 | 10.4 | 0.00 | 0.16 | 0.12 | 60 | 1016.1 |
| 20260503212005 | 79 | 35 | 4.3 | 8.7 | 0.00 | 0.16 | 0.12 | 63 | 1016.2 |
| 20260503211521 | 79 | 86 | 3.5 | 9.6 | 0.00 | 0.16 | 0.12 | 62 | 1016.2 |
| 20260503211006 | 80 | 89 | 4.3 | 9.6 | 0.00 | 0.16 | 0.12 | 60 | 1016.3 |
| 20260503210514 | 80 | 74 | 1.7 | 9.6 | 0.00 | 0.16 | 0.12 | 61 | 1016.1 |
| 20260503210023 | 80 | 38 | 6.1 | 9.6 | 0.00 | 0.16 | 0.12 | 60 | 1016.3 |
| 20260503205508 | 80 | 40 | 4.3 | 9.6 | 0.00 | 0.17 | 0.12 | 61 | 1016.4 |
| 20260503205008 | 81 | 26 | 3.5 | 9.6 | 0.00 | 0.17 | 0.12 | 58 | 1016.4 |
| 20260503204528 | 81 | 72 | 3.5 | 9.6 | 0.00 | 0.17 | 0.12 | 59 | 1016.3 |
| 20260503204009 | 81 | 22 | 3.5 | 7.8 | 0.00 | 0.18 | 0.12 | 59 | 1016.4 |
| 20260503203509 | 81 | 103 | 4.3 | 8.7 | 0.00 | 0.21 | 0.12 | 59 | 1016.6 |
| 20260503203039 | 81 | 89 | 4.3 | 9.6 | 0.00 | 0.21 | 0.12 | 59 | 1016.6 |
| 20260503202511 | 80 | 117 | 5.2 | 9.6 | 0.00 | 0.21 | 0.12 | 61 | 1016.5 |
| 20260503202010 | 79 | 74 | 2.6 | 8.7 | 0.00 | 0.21 | 0.12 | 64 | 1016.5 |
| 20260503201517 | 79 | 46 | 3.5 | 10.4 | 0.00 | 0.21 | 0.12 | 60 | 1016.6 |
| 20260503201006 | 79 | 44 | 3.5 | 10.4 | 0.00 | 0.21 | 0.12 | 60 | 1016.7 |
| 20260503200507 | 80 | 57 | 2.6 | 8.7 | 0.00 | 0.21 | 0.12 | 61 | 1016.6 |
| 20260503200024 | 79 | 12 | 5.2 | 8.7 | 0.00 | 0.21 | 0.12 | 64 | 1016.8 |
| 20260503195508 | 78 | 56 | 3.5 | 9.6 | 0.00 | 0.21 | 0.12 | 63 | 1016.9 |
| 20260503195009 | 78 | 58 | 3.5 | 9.6 | 0.00 | 0.21 | 0.12 | 63 | 1016.8 |
| 20260503194519 | 78 | 107 | 3.5 | 9.6 | 0.00 | 0.21 | 0.12 | 63 | 1016.9 |
| 20260503194009 | 79 | 45 | 5.2 | 10.4 | 0.00 | 0.21 | 0.12 | 63 | 1016.9 |
| 20260503193511 | 79 | 69 | 5.2 | 13.0 | 0.00 | 0.21 | 0.12 | 63 | 1017.0 |
| 20260503193028 | 79 | 51 | 6.1 | 13.0 | 0.00 | 0.21 | 0.12 | 61 | 1017.2 |
| 20260503192507 | 80 | 31 | 4.3 | 11.3 | 0.00 | 0.21 | 0.12 | 62 | 1017.3 |
| 20260503192010 | 80 | 77 | 4.3 | 11.3 | 0.00 | 0.21 | 0.12 | 63 | 1017.4 |
| 20260503191529 | 80 | 27 | 6.1 | 12.2 | 0.00 | 0.21 | 0.12 | 62 | 1017.3 |
| 20260503191010 | 81 | 76 | 2.6 | 12.2 | 0.00 | 0.21 | 0.12 | 60 | 1017.5 |
| 20260503190515 | 81 | 50 | 3.5 | 10.4 | 0.00 | 0.21 | 0.12 | 62 | 1017.6 |
| 20260503190021 | 80 | 70 | 5.2 | 12.2 | 0.00 | 0.21 | 0.12 | 63 | 1017.6 |
| 20260503185507 | 80 | 71 | 2.6 | 12.2 | 0.00 | 0.21 | 0.12 | 64 | 1017.8 |
| 20260503185011 | 80 | 87 | 4.3 | 11.3 | 0.00 | 0.21 | 0.12 | 65 | 1017.8 |
| 20260503184526 | 79 | 32 | 1.7 | 10.4 | 0.00 | 0.21 | 0.12 | 66 | 1017.9 |
| 20260503184012 | 79 | 9 | 3.5 | 11.3 | 0.00 | 0.21 | 0.12 | 64 | 1017.9 |
| 20260503183511 | 80 | 45 | 6.1 | 11.3 | 0.00 | 0.21 | 0.12 | 61 | 1018.0 |
| 20260503183029 | 80 | 117 | 3.5 | 12.2 | 0.00 | 0.21 | 0.12 | 65 | 1018.1 |
| 20260503182516 | 79 | 29 | 5.2 | 13.0 | 0.00 | 0.21 | 0.12 | 67 | 1018.1 |
| 20260503182012 | 78 | 105 | 7.0 | 13.0 | 0.00 | 0.21 | 0.12 | 67 | 1018.1 |
| 20260503181527 | 78 | 57 | 5.2 | 10.4 | 0.00 | 0.21 | 0.12 | 65 | 1018.1 |
| 20260503181010 | 78 | 62 | 5.2 | 13.0 | 0.00 | 0.21 | 0.12 | 66 | 1018.4 |
| 20260503180510 | 78 | 130 | 5.2 | 13.0 | 0.00 | 0.21 | 0.12 | 64 | 1018.4 |
| 20260503180031 | 78 | 48 | 2.6 | 11.3 | 0.00 | 0.21 | 0.12 | 67 | 1018.5 |
| 20260503175507 | 78 | 42 | 6.1 | 11.3 | 0.00 | 0.21 | 0.12 | 65 | 1018.6 |
| 20260503175007 | 78 | 81 | 4.3 | 12.2 | 0.00 | 0.21 | 0.12 | 64 | 1018.5 |
| 20260503174521 | 78 | 24 | 5.2 | 12.2 | 0.00 | 0.21 | 0.12 | 66 | 1018.7 |
| 20260503174010 | 78 | 24 | 6.1 | 12.2 | 0.00 | 0.21 | 0.12 | 67 | 1018.6 |
| 20260503173040 | 77 | 61 | 2.6 | 12.2 | 0.00 | 0.21 | 0.12 | 68 | 1018.7 |
| 20260503172512 | 76 | 106 | 7.0 | 12.2 | 0.00 | 0.21 | 0.12 | 69 | 1018.8 |
| 20260503172010 | 76 | 30 | 3.5 | 12.2 | 0.00 | 0.21 | 0.12 | 72 | 1018.8 |
| 20260503171535 | 76 | 32 | 6.1 | 12.2 | 0.00 | 0.21 | 0.12 | 68 | 1018.7 |
| 20260503171003 | 76 | 43 | 3.5 | 11.3 | 0.00 | 0.21 | 0.12 | 71 | 1018.7 |
| 20260503170506 | 76 | 34 | 6.1 | 13.9 | 0.00 | 0.21 | 0.12 | 69 | 1018.7 |
| 20260503151007 | 69 | 53 | 5.2 | 9.6 | 0.00 | 0.21 | 0.12 | 81 | 1019.2 |
| 20260503150503 | 68 | 48 | 4.3 | 11.3 | 0.00 | 0.21 | 0.12 | 82 | 1019.4 |
| 20260503131009 | 65 | 21 | 3.5 | 10.4 | 0.00 | 0.21 | 0.12 | 89 | 1017.8 |
| 20260503130505 | 65 | 11 | 5.2 | 10.4 | 0.00 | 0.21 | 0.12 | 89 | 1017.9 |
| 20260503110508 | 64 | 352 | 1.7 | 7.8 | 0.00 | 0.21 | 0.12 | 94 | 1016.6 |
| 20260503090503 | 64 | 352 | 4.3 | 8.7 | 0.04 | 0.21 | 0.12 | 94 | 1015.9 |
| 20260503081518 | 65 | 352 | 2.6 | 7.8 | 0.01 | 0.17 | 0.08 | 93 | 1015.7 |
| 20260503071510 | 65 | 21 | 4.3 | 7.8 | 0.01 | 0.16 | 0.07 | 93 | 1015.5 |
| 20260503070503 | 66 | 346 | 3.5 | 9.6 | 0.02 | 0.16 | 0.07 | 93 | 1015.5 |
| 20260503054518 | 70 | 237 | 0.0 | 3.5 | 0.02 | 0.14 | 0.05 | 94 | 1015.2 |
| 20260503053504 | 70 | 230 | 1.7 | 4.3 | 0.02 | 0.14 | 0.05 | 94 | 1015.5 |
| 20260503053019 | 70 | 236 | 0.9 | 3.5 | 0.02 | 0.14 | 0.05 | 94 | 1015.5 |
| 20260503052005 | 70 | 236 | 1.7 | 5.2 | 0.02 | 0.13 | 0.04 | 94 | 1015.6 |
| 20260503051524 | 70 | 229 | 2.6 | 5.2 | 0.02 | 0.13 | 0.04 | 94 | 1015.6 |
| 20260503051007 | 70 | 228 | 1.7 | 5.2 | 0.03 | 0.13 | 0.04 | 94 | 1015.6 |
| 20260503050504 | 70 | 225 | 1.7 | 3.5 | 0.03 | 0.13 | 0.04 | 94 | 1015.6 |
| 20260503050010 | 70 | 235 | 0.9 | 2.6 | 0.04 | 0.13 | 0.04 | 93 | 1015.6 |
| 20260503044525 | 70 | 239 | 1.7 | 4.3 | 0.03 | 0.12 | 0.03 | 94 | 1015.7 |
| 20260503044003 | 70 | 235 | 1.7 | 4.3 | 0.03 | 0.12 | 0.03 | 94 | 1015.6 |
| 20260503043021 | 70 | 244 | 0.9 | 5.2 | 0.03 | 0.12 | 0.03 | 94 | 1015.5 |
| 20260503042504 | 70 | 225 | 1.7 | 5.2 | 0.03 | 0.12 | 0.03 | 93 | 1015.6 |
| 20260503042008 | 70 | 217 | 2.6 | 5.2 | 0.02 | 0.11 | 0.02 | 93 | 1015.6 |
| 20260503041525 | 70 | 205 | 2.6 | 7.8 | 0.02 | 0.11 | 0.02 | 93 | 1015.6 |
| 20260503040504 | 70 | 238 | 2.6 | 5.2 | 0.01 | 0.10 | 0.01 | 92 | 1015.3 |
| 20260503040031 | 70 | 234 | 2.6 | 4.3 | 0.00 | 0.09 | 0.00 | 92 | 1015.2 |
| 20260503035505 | 70 | 229 | 1.7 | 4.3 | 0.00 | 0.09 | 0.09 | 92 | 1015.1 |
| 20260503034513 | 70 | 244 | 0.9 | 4.3 | 0.00 | 0.09 | 0.09 | 92 | 1014.6 |
| 20260503033015 | 70 | 226 | 2.6 | 4.3 | 0.00 | 0.09 | 0.09 | 92 | 1014.2 |
| 20260503032508 | 71 | 230 | 0.0 | 4.3 | 0.00 | 0.09 | 0.09 | 92 | 1014.1 |
| 20260503031512 | 71 | 223 | 1.7 | 5.2 | 0.00 | 0.09 | 0.09 | 91 | 1014.1 |
| 20260503031006 | 71 | 248 | 2.6 | 6.1 | 0.00 | 0.09 | 0.09 | 91 | 1014.1 |
| 20260503030027 | 71 | 208 | 2.6 | 7.0 | 0.00 | 0.09 | 0.09 | 91 | 1014.2 |
| 20260503025506 | 71 | 215 | 3.5 | 8.7 | 0.00 | 0.09 | 0.09 | 91 | 1014.3 |
| 20260503025007 | 71 | 185 | 3.5 | 8.7 | 0.00 | 0.09 | 0.09 | 91 | 1014.3 |
| 20260503023035 | 70 | 205 | 2.6 | 6.1 | 0.00 | 0.09 | 0.09 | 92 | 1014.1 |
| 20260503022009 | 70 | 236 | 2.6 | 5.2 | 0.00 | 0.09 | 0.09 | 92 | 1013.8 |
| 20260503021519 | 70 | 233 | 1.7 | 4.3 | 0.00 | 0.09 | 0.09 | 92 | 1013.6 |
| 20260503014515 | 70 | 236 | 1.7 | 7.0 | 0.00 | 0.09 | 0.09 | 91 | 1013.4 |
| 20260503014006 | 70 | 203 | 2.6 | 6.1 | 0.00 | 0.09 | 0.09 | 91 | 1013.5 |
| 20260503013510 | 70 | 237 | 3.5 | 6.1 | 0.00 | 0.09 | 0.09 | 92 | 1013.5 |
| 20260503013013 | 70 | 223 | 2.6 | 6.1 | 0.00 | 0.09 | 0.09 | 92 | 1013.2 |
| 20260503012007 | 70 | 213 | 1.7 | 7.0 | 0.00 | 0.09 | 0.09 | 92 | 1013.1 |
| 20260503011518 | 70 | 200 | 0.9 | 7.0 | 0.00 | 0.09 | 0.09 | 93 | 1013.2 |